Torna al catalogo

CZ-6A DEB

AttivoPO
NORAD 54548·DEBRIS·🇨🇳 China

Lanciato Nov 11, 2022 da Taiyuan Satellite Launch Center

Loading…

Prossimi Passaggi (prossime 24 ore)

TLE

AggiornatoSource: Space-Track

Epoca: Sep 14, 2026, 02:53 UTC

1 54548U 22151KY  26257.12023179  .00015409  00000-0  19804-2 0  9997
2 54548  98.5873 320.5801 0025899 341.5502  18.4767 14.81028936203224

Traccia CZ-6A DEB in tempo reale con AllMySat

Download on the App Store